Probability
0 0 0 0 0 0 0 0 0 0 0 0 0 0 0 3 3 3 3 0 0 3 3 0 6 10 6 6 10 6 6 6 10 10 10 10 3 6 6 3 3 3 0 0
0 0 0 0 0 0 0 0 0 0 0 0 0 0 0 0 0 3 0 0 3 3 0 0 0 6 10 6 10 13 10 6 6 10 6 6 3 6 6 3 3 3 0 0
0 0 0 0 0 0 0 0 0 0 0 0 0 0 0 0 0 0 3 3 3 0 3 3 3 3 6 10 13 13 10 6 10 10 6 10 6 6 6 6 6 3 0 0
0 0 0 0 0 0 0 0 0 0 0 0 0 0 0 0 0 0 3 6 3 3 0 3 3 3 3 6 6 13 10 10 13 10 10 6 6 6 3 3 6 3 3 0
0 0 0 0 0 0 0 0 0 0 0 0 0 0 0 0 0 0 0 3 3 3 3 0 3 3 3 3 6 6 13 16 16 10 10 10 6 6 6 6 3 3 3 3
0 0 0 0 0 0 0 0 0 0 0 0 0 0 0 0 0 0 0 0 3 3 3 0 0 3 6 6 6 6 6 10 13 10 10 6 6 6 3 3 3 3 3 3
0 0 0 0 0 0 0 0 0 0 0 0 0 0 0 0 0 0 0 0 0 3 3 0 0 6 6 3 3 3 3 10 13 10 10 6 6 6 3 3 3 3 3 3
0 0 0 0 0 0 0 0 0 0 0 0 0 0 0 0 0 0 0 0 0 0 3 3 3 3 6 6 3 3 3 6 13 10 10 10 10 10 6 3 3 3 3 3
0 0 0 0 0 0 0 0 0 0 0 0 0 0 0 0 0 0 0 0 0 0 3 3 3 3 3 3 6 6 6 10 10 10 10 10 10 10 10 3 3 6 3 3
0 0 0 0 0 0 0 0 0 0 0 0 0 0 0 0 0 0 0 0 3 3 3 3 3 3 3 3 6 6 6 10 10 10 10 10 10 10 10 3 3 3 3 0
0 0 0 0 0 0 0 0 0 0 0 0 0 0 0 0 0 3 0 0 3 3 3 0 0 0 3 3 6 6 6 6 10 6 10 10 10 10 10 10 10 6 0 0
0 0 0 0 0 0 0 0 0 0 0 0 0 0 0 3 3 3 3 0 0 0 0 0 0 0 0 0 6 6 6 6 6 6 6 10 10 10 10 10 3 6 3 3
0 0 0 0 0 0 0 0 0 0 0 0 0 0 0 3 3 0 3 0 3 0 0 0 0 0 0 3 3 6 6 6 6 10 6 6 10 10 6 6 3 3 3 0
0 0 0 0 0 0 0 0 0 0 0 0 0 0 0 0 0 0 3 3 3 0 0 0 0 0 0 0 3 3 6 6 10 10 6 6 10 10 10 6 3 3 0 0
0 0 0 0 0 0 0 0 0 0 0 0 0 0 0 0 0 0 0 0 0 0 0 0 0 0 0 0 0 3 3 6 10 10 6 10 10 10 10 3 3 0 0 0
0 0 0 0 0 0 0 0 0 0 0 0 0 0 0 0 0 0 0 0 0 0 0 0 0 0 0 0 0 0 3 6 6 6 10 13 10 10 6 3 3 0 0 0
0 0 0 0 0 0 0 0 0 0 0 0 0 0 0 0 0 0 0 0 0 0 0 0 0 0 0 0 0 0 0 3 6 6 10 10 6 6 6 3 3 0 0 0
0 0 0 0 0 0 0 0 0 0 0 0 0 0 0 0 0 0 0 0 0 0 0 0 0 0 0 0 0 0 0 0 6 6 10 6 6 3 6 6 3 0 0 0
0 0 0 0 0 0 0 0 0 0 0 0 0 0 0 0 0 0 0 0 0 0 0 0 0 0 0 0 0 0 0 0 6 6 6 3 10 6 6 6 6 0 3 3
0 0 0 0 0 0 0 0 0 0 0 0 0 0 0 0 0 0 0 0 0 0 0 0 0 0 0 0 0 0 0 0 0 3 3 6 6 10 6 6 6 0 3 3
0 0 0 0 0 0 0 0 0 0 0 0 0 0 0 0 0 0 0 0 0 0 0 0 0 0 0 0 0 0 0 0 0 0 3 3 3 10 6 6 6 0 3 0
0 0 0 0 0 0 0 0 0 0 0 0 0 0 0 0 0 0 0 0 0 0 0 0 0 0 0 0 0 0 0 0 0 0 3 3 3 6 3 6 3 0 0 0
0 0 0 0 0 0 0 0 0 0 0 0 0 0 0 0 0 0 0 0 0 0 0 0 0 0 0 0 0 0 0 0 0 0 0 3 3 3 0 3 0 3 0 3
0 0 0 0 0 0 0 0 0 0 0 0 0 0 0 0 0 0 0 0 0 0 0 0 0 0 0 0 0 0 0 0 0 0 0 3 3 3 0 0 3 3 3 3
0 0 0 0 0 0 0 0 0 0 0 0 0 0 0 0 0 0 0 0 0 0 0 0 0 0 0 0 0 0 0 0 0 0 0 3 3 0 0 0 0 0 0 0
0 0 0 0 0 0 0 0 0 0 0 0 0 0 0 0 0 0 0 0 0 0 0 0 0 0 0 0 0 0 0 0 0 0 0 0 3 0 0 0 0 0 0 0
Height
5855 5855 5854 5854 5854 5854 5854 5854 5854 5855 5855 5856 5856 5856 5855 5855 5855 5855 5855 5855 5855 5854 5854 5854 5854 5853 5853 5853 5853 5852 5852 5852 5851 5850 5850 5849 5848 5847 5847 5846 5845 5844 5844 5844
5852 5852 5851 5851 5851 5851 5851 5851 5851 5852 5852 5852 5852 5852 5852 5852 5852 5852 5852 5852 5851 5851 5851 5850 5850 5850 5850 5849 5849 5849 5848 5848 5847 5847 5846 5845 5844 5844 5843 5842 5841 5841 5840 5840
5849 5849 5848 5848 5847 5847 5847 5847 5847 5848 5848 5848 5848 5849 5849 5848 5848 5848 5848 5847 5847 5847 5847 5846 5846 5846 5845 5845 5845 5844 5844 5843 5843 5842 5842 5841 5841 5840 5839 5838 5837 5837 5836 5836
5845 5845 5844 5844 5844 5843 5843 5843 5843 5843 5844 5844 5845 5845 5845 5844 5844 5844 5843 5843 5843 5842 5842 5841 5841 5841 5840 5840 5840 5839 5839 5839 5838 5838 5837 5837 5836 5836 5835 5834 5834 5833 5832 5832
5841 5841 5841 5840 5840 5840 5839 5839 5839 5839 5839 5840 5840 5840 5841 5840 5839 5839 5838 5838 5837 5837 5837 5836 5836 5835 5835 5834 5834 5834 5834 5834 5833 5833 5832 5832 5831 5831 5830 5830 5829 5828 5828 5827
5838 5838 5837 5837 5836 5836 5835 5835 5835 5835 5835 5835 5835 5835 5835 5835 5834 5834 5833 5833 5832 5831 5831 5830 5830 5829 5829 5829 5829 5828 5828 5828 5828 5827 5827 5826 5826 5825 5825 5824 5824 5823 5823 5822
5834 5834 5833 5833 5832 5832 5832 5832 5832 5831 5831 5831 5831 5830 5831 5829 5829 5828 5828 5827 5826 5826 5825 5824 5824 5823 5823 5823 5823 5822 5822 5822 5821 5821 5821 5820 5820 5819 5819 5818 5818 5818 5817 5817
5830 5831 5830 5829 5829 5828 5828 5828 5829 5828 5827 5826 5825 5825 5826 5824 5823 5822 5822 5821 5820 5820 5819 5818 5817 5816 5816 5816 5816 5816 5816 5815 5815 5815 5814 5814 5813 5813 5813 5812 5812 5811 5811 5810
5826 5826 5825 5824 5824 5824 5823 5823 5823 5823 5821 5821 5821 5820 5820 5819 5818 5817 5816 5815 5814 5814 5813 5812 5811 5810 5810 5810 5810 5810 5810 5809 5809 5808 5808 5807 5806 5806 5805 5805 5805 5804 5804 5803
5821 5821 5820 5820 5819 5819 5819 5818 5818 5817 5816 5816 5816 5815 5815 5813 5812 5811 5810 5809 5808 5808 5807 5806 5805 5804 5804 5804 5804 5804 5803 5803 5802 5802 5801 5800 5799 5799 5798 5798 5797 5797 5796 5796
5815 5816 5815 5815 5814 5814 5814 5813 5812 5811 5811 5811 5810 5812 5809 5807 5806 5806 5805 5804 5803 5802 5801 5800 5799 5798 5797 5797 5797 5797 5796 5796 5795 5795 5794 5793 5792 5791 5790 5790 5789 5789 5788 5787
5810 5810 5809 5809 5809 5808 5807 5807 5806 5806 5805 5804 5804 5807 5802 5801 5800 5799 5798 5797 5796 5795 5794 5793 5792 5792 5791 5791 5791 5790 5790 5789 5788 5787 5786 5785 5784 5783 5782 5781 5781 5780 5780 5779
5804 5804 5804 5803 5804 5803 5801 5801 5800 5799 5799 5798 5797 5800 5796 5794 5793 5792 5791 5790 5789 5788 5787 5786 5786 5785 5784 5784 5783 5783 5782 5782 5781 5780 5779 5778 5776 5775 5774 5773 5772 5771 5771 5770
5798 5798 5799 5799 5797 5795 5795 5794 5794 5793 5792 5791 5791 5791 5789 5787 5786 5785 5784 5783 5782 5781 5780 5779 5779 5778 5777 5777 5776 5776 5775 5774 5773 5772 5771 5770 5768 5767 5766 5764 5763 5762 5761 5761
5792 5792 5792 5791 5790 5789 5788 5788 5787 5786 5785 5785 5784 5783 5782 5780 5779 5778 5777 5776 5775 5774 5773 5773 5772 5771 5770 5770 5769 5768 5768 5767 5766 5764 5763 5762 5760 5759 5757 5756 5754 5753 5752 5751
5786 5786 5785 5785 5784 5782 5782 5781 5780 5779 5778 5777 5776 5776 5775 5773 5772 5771 5770 5769 5768 5767 5766 5765 5764 5764 5763 5762 5762 5761 5760 5759 5758 5757 5755 5753 5752 5750 5748 5747 5745 5743 5742 5741
5779 5779 5779 5778 5777 5775 5775 5775 5774 5772 5771 5770 5769 5770 5767 5766 5765 5763 5762 5762 5761 5760 5759 5758 5757 5756 5756 5755 5754 5754 5753 5751 5750 5748 5747 5745 5743 5741 5739 5737 5736 5734 5732 5731
5772 5772 5771 5770 5770 5769 5771 5768 5766 5765 5764 5763 5762 5761 5759 5758 5757 5756 5755 5754 5753 5752 5752 5751 5750 5749 5748 5748 5747 5746 5744 5743 5741 5740 5738 5736 5734 5733 5730 5728 5726 5724 5722 5721
5765 5765 5764 5763 5762 5761 5762 5760 5758 5757 5757 5756 5754 5753 5752 5751 5750 5749 5748 5746 5746 5745 5744 5743 5742 5741 5741 5740 5739 5738 5736 5735 5733 5731 5729 5727 5725 5723 5721 5719 5716 5714 5712 5710
5758 5758 5758 5756 5755 5754 5755 5753 5751 5751 5750 5748 5747 5745 5744 5743 5743 5742 5740 5739 5738 5737 5736 5735 5734 5734 5733 5732 5731 5730 5728 5726 5724 5722 5721 5719 5716 5714 5712 5710 5707 5705 5703 5701
5751 5750 5750 5749 5747 5747 5747 5745 5744 5745 5744 5741 5739 5738 5737 5736 5735 5734 5732 5731 5730 5730 5729 5728 5727 5726 5725 5724 5723 5721 5719 5717 5716 5713 5711 5709 5707 5705 5703 5701 5698 5696 5694 5692
5744 5743 5743 5742 5741 5742 5739 5738 5737 5737 5735 5733 5732 5731 5729 5728 5727 5725 5724 5723 5723 5722 5721 5720 5719 5718 5717 5715 5714 5713 5711 5709 5706 5704 5702 5700 5698 5696 5694 5692 5690 5688 5686 5684
5737 5737 5736 5735 5736 5734 5731 5730 5729 5728 5727 5726 5724 5723 5722 5720 5719 5718 5716 5715 5715 5714 5713 5712 5710 5709 5708 5707 5705 5704 5702 5699 5697 5695 5693 5691 5689 5687 5685 5683 5681 5680 5678 5676
5729 5728 5728 5727 5727 5725 5724 5722 5721 5720 5719 5718 5716 5715 5714 5712 5711 5710 5708 5707 5706 5706 5705 5703 5702 5701 5699 5698 5696 5695 5693 5691 5689 5686 5684 5682 5680 5678 5677 5675 5673 5672 5670 5669
5721 5721 5720 5719 5719 5717 5716 5715 5713 5712 5710 5709 5708 5706 5705 5704 5703 5702 5701 5699 5698 5697 5696 5695 5693 5692 5690 5689 5687 5686 5684 5682 5680 5678 5676 5674 5672 5670 5669 5667 5665 5664 5662 5661
5714 5713 5712 5712 5711 5709 5709 5707 5705 5704 5702 5701 5699 5698 5697 5695 5695 5694 5692 5691 5690 5689 5688 5686 5684 5683 5681 5680 5678 5677 5676 5674 5672 5671 5669 5666 5665 5663 5661 5659 5657 5656 5655 5653
Wind_Speed
9 9 10 10 11 11 12 13 12 12 12 12 12 12 12 12 13 13 13 13 13 13 13 13 14 14 14 14 14 14 14 15 14 14 14 14 14 13 13 13 14 14 14 14
10 10 10 11 12 12 13 13 13 13 14 14 14 14 14 14 14 14 13 13 13 14 14 14 15 15 16 16 16 16 16 16 15 15 15 15 15 14 14 14 15 15 14 14
10 10 11 11 11 12 12 13 13 14 14 14 15 15 15 14 15 15 15 15 15 15 15 16 16 17 17 18 18 18 18 17 17 17 16 16 16 16 15 15 15 15 15 15
11 11 11 11 11 12 12 13 14 14 15 15 15 15 16 16 16 16 16 17 17 17 17 17 18 18 19 19 19 20 19 19 18 18 18 18 17 17 16 16 16 16 16 16
11 11 11 11 12 12 12 13 14 14 15 15 16 17 16 16 17 17 17 18 19 18 18 18 19 20 20 21 21 21 21 21 20 20 20 20 19 19 18 18 18 17 18 18
11 11 12 12 12 12 13 13 14 15 15 16 16 17 17 17 17 18 18 19 19 20 20 21 21 21 21 22 22 22 23 23 23 22 21 21 20 20 20 20 19 20 20 20
12 12 12 12 12 12 12 13 14 15 16 16 16 17 17 17 17 18 18 19 20 21 21 22 22 22 22 22 22 23 23 24 24 24 23 23 22 22 22 22 22 22 22 22
13 13 13 13 13 13 13 14 14 16 17 17 16 16 16 17 17 18 19 19 21 21 21 21 22 22 22 22 22 23 23 24 24 25 25 24 24 24 24 24 24 24 24 24
15 15 14 14 14 14 15 15 16 17 18 18 18 18 18 18 19 19 19 20 21 21 22 22 22 22 22 22 23 23 23 24 25 25 26 26 26 26 26 26 26 26 26 26
16 16 16 16 16 16 17 16 17 18 19 19 20 19 20 20 20 20 20 20 21 21 22 22 22 23 23 23 24 24 24 25 25 25 26 26 26 27 26 27 27 27 27 27
17 18 18 18 18 18 18 18 18 20 20 20 21 20 21 21 21 21 21 21 22 22 22 22 23 23 23 23 24 24 25 26 26 26 27 27 27 27 27 27 27 28 28 28
18 18 19 19 19 19 19 19 19 20 20 20 21 21 22 22 22 22 22 22 22 22 23 22 23 24 24 24 24 24 25 25 26 27 27 28 28 28 28 28 28 28 28 29
18 19 19 20 20 20 20 19 19 20 21 21 21 21 22 22 23 23 23 23 23 23 23 23 23 24 24 24 24 24 25 25 26 27 27 28 28 28 28 28 29 29 29 30
19 20 20 20 20 20 20 20 20 21 21 22 22 22 22 23 23 23 23 23 23 24 24 23 23 24 24 24 24 24 25 25 26 27 27 28 28 28 29 29 29 30 30 31
20 21 21 21 21 21 21 21 21 22 22 22 22 23 23 24 25 25 24 24 24 24 24 24 23 24 24 24 24 25 26 26 26 27 27 28 28 29 29 29 30 31 31 31
21 22 22 22 22 23 23 23 23 23 24 23 23 23 24 25 25 26 25 25 25 24 24 24 24 24 24 24 24 25 26 26 27 27 28 29 29 29 30 30 30 31 31 31
22 22 23 23 23 24 24 22 23 24 24 24 24 23 24 25 25 26 25 24 25 25 24 24 24 25 24 25 25 25 26 27 28 28 28 29 29 29 30 30 30 31 31 32
22 23 24 24 24 25 24 22 23 23 23 24 24 24 25 25 25 25 25 25 25 24 23 23 24 25 25 25 25 25 27 27 28 28 29 29 29 29 30 30 31 31 31 31
22 23 24 24 24 24 23 22 22 23 23 23 24 24 25 25 24 24 24 24 24 24 23 22 23 25 25 25 25 26 27 27 28 28 29 29 30 29 29 30 31 31 31 30
22 23 24 24 25 24 22 22 22 23 23 23 23 24 24 24 24 24 24 24 24 23 23 23 24 25 26 26 26 26 26 27 28 28 29 29 30 30 30 30 30 30 29 29
23 23 24 25 25 24 23 22 23 23 23 23 23 24 24 25 25 25 25 24 24 24 24 24 24 25 26 26 26 27 27 27 28 28 28 28 29 29 29 29 29 28 27 27
23 24 25 25 26 25 24 24 24 25 24 24 24 24 25 25 25 25 25 24 24 25 25 25 25 25 26 27 27 27 28 29 29 28 28 28 28 28 28 28 27 27 26 26
24 24 25 26 26 26 26 25 25 25 25 25 25 25 25 25 25 25 25 25 25 25 25 26 26 26 26 27 27 28 28 28 28 28 28 28 27 27 27 27 26 26 26 26
25 25 25 26 26 26 27 26 26 26 26 26 26 26 26 25 25 25 25 25 25 25 25 26 26 26 26 27 28 28 27 27 27 27 27 27 27 26 26 26 26 26 25 26
26 26 26 27 26 27 26 26 26 26 26 27 27 27 27 26 25 25 25 25 25 25 25 26 26 26 27 27 27 27 26 26 26 26 26 26 26 26 26 25 25 25 25 25
26 26 26 26 26 26 26 26 27 27 27 27 27 28 28 27 27 26 26 26 25 25 26 26 26 26 26 26 26 25 25 25 25 25 25 25 25 25 26 26 25 25 26 25
Wind_Direction
271 273 273 273 272 269 268 265 261 259 260 261 261 261 262 263 263 266 268 268 268 268 266 266 266 267 268 269 272 273 276 277 276 277 279 283 281 281 278 279 277 277 276 274
272 274 273 273 274 273 270 265 262 260 260 261 261 261 262 262 265 267 267 267 268 268 267 267 266 267 269 270 272 274 276 275 275 274 277 281 282 281 279 279 276 273 273 273
275 275 275 274 276 277 272 268 265 264 263 264 264 264 267 267 265 264 263 266 268 268 268 268 268 268 269 270 272 273 276 277 277 276 277 278 279 280 278 279 279 274 272 272
274 276 276 275 277 277 275 274 269 266 265 265 266 267 268 267 266 264 264 267 269 269 270 270 270 269 270 270 271 272 273 274 274 274 275 276 278 278 277 276 276 275 273 275
276 279 277 276 278 278 276 275 272 270 269 268 268 268 268 266 265 267 267 266 268 269 270 272 272 271 270 269 269 269 271 272 271 271 272 273 274 275 275 274 274 274 274 276
277 280 280 278 278 277 279 278 275 273 273 273 271 270 272 268 268 269 269 269 268 269 270 273 274 272 270 269 269 269 270 270 269 269 270 272 273 274 274 273 273 274 275 275
277 278 279 280 280 279 280 282 282 281 279 276 275 273 276 274 273 272 273 272 270 271 273 275 275 272 269 269 270 270 269 269 269 268 269 271 272 273 275 273 272 273 275 276
276 276 278 280 280 280 281 280 280 281 283 281 278 278 280 281 279 276 276 275 274 274 275 276 275 269 267 268 269 271 271 271 270 270 270 271 271 271 273 273 273 273 274 275
274 273 274 276 277 278 278 279 278 279 280 280 280 281 283 284 283 279 277 277 275 275 275 275 275 269 267 267 269 270 271 271 271 272 272 272 272 272 273 273 273 273 272 272
272 271 272 274 275 276 279 278 277 278 280 280 279 280 282 283 282 281 278 277 276 275 275 275 275 272 269 268 268 269 271 271 272 273 273 273 274 273 273 273 273 272 272 272
272 272 273 273 274 278 279 277 276 277 277 278 279 280 281 282 282 280 279 279 278 276 275 275 275 272 269 268 268 269 271 272 273 274 275 275 274 275 276 274 272 271 271 272
272 274 275 277 277 276 276 276 276 278 278 277 278 281 281 281 281 281 280 279 279 277 275 275 274 272 270 269 270 270 273 274 274 275 275 276 275 276 276 275 273 271 271 272
275 275 276 277 278 278 276 276 277 278 277 277 279 281 281 280 280 281 281 280 279 279 277 275 275 273 271 271 272 272 274 276 276 276 276 276 276 276 275 275 274 272 271 273
274 276 277 279 282 281 278 277 277 279 279 279 279 281 281 281 280 281 282 281 280 281 279 276 275 274 273 272 272 273 274 276 277 278 278 278 277 277 277 277 276 274 274 274
275 278 279 280 281 279 278 277 277 278 280 281 281 279 279 280 280 280 279 280 280 281 280 279 278 276 275 274 273 275 276 278 279 279 279 279 279 278 278 278 277 276 276 276
275 278 279 280 282 280 279 280 279 279 281 281 281 281 281 279 281 281 280 279 279 280 280 280 278 276 275 275 274 275 277 278 279 279 279 280 280 280 280 280 280 278 277 275
275 278 280 282 282 280 278 280 280 280 281 281 281 281 281 281 282 281 281 281 281 281 280 279 278 277 277 277 277 276 277 278 279 280 280 280 281 281 281 281 282 281 279 277
274 278 279 281 283 281 282 280 280 280 280 280 280 280 281 281 281 282 282 282 282 281 277 275 276 277 277 279 279 279 280 280 280 281 281 281 282 283 283 283 284 283 280 278
274 276 279 282 285 286 285 283 282 281 280 280 280 280 280 281 282 282 282 282 282 282 278 277 277 277 277 279 280 282 282 282 281 281 282 283 283 283 285 285 284 283 281 279
273 275 277 282 286 289 288 283 283 284 281 281 280 280 281 282 282 283 283 283 282 283 281 281 279 278 278 279 281 283 283 283 283 282 282 284 284 284 285 285 285 284 282 281
274 276 279 282 285 289 288 286 283 282 282 280 280 282 282 282 282 282 282 283 282 282 282 283 282 279 278 280 282 283 284 284 285 285 284 284 285 285 285 285 285 285 284 282
274 276 279 281 284 286 286 286 284 282 282 281 280 281 282 283 283 282 282 283 283 283 283 285 284 282 281 281 282 283 283 284 285 286 287 287 285 284 284 284 284 284 284 282
273 276 278 279 281 283 285 285 285 283 282 283 282 282 282 283 283 282 282 282 283 284 285 286 285 284 282 282 282 283 284 285 286 287 287 287 286 285 284 282 282 283 284 283
275 277 277 278 281 283 284 284 285 285 284 283 283 283 283 282 282 283 283 283 283 284 285 286 286 283 282 283 283 284 284 285 287 288 288 287 286 286 287 285 283 282 282 283
275 277 278 280 282 283 283 283 284 284 283 282 282 282 283 281 280 280 282 283 283 283 285 286 286 284 283 283 283 282 282 284 286 289 290 289 287 286 286 286 285 283 281 281
277 277 278 281 282 283 285 285 284 283 282 282 281 281 282 282 281 281 281 282 282 283 285 287 287 286 285 282 281 282 282 284 286 288 290 289 286 286 288 287 285 284 284 285